Weather History for KIMT - October, 2013

Change the Weather History Date:

Thursday, October 10, 2013

  Actual Average Record
Temperature  
Mean Temperature 54 °F -  
Max Temperature 72 °F 57 °F 84 °F (1938)
Min Temperature 37 °F 36 °F 21 °F (1952)
Degree Days  
Heating Degree Days 11    
Growing Degree Days 4 (Base 50)    
Moisture  
Dew Point 42 °F    
Average Humidity 82    
Maximum Humidity 100    
Minimum Humidity 34    
Precipitation  
Precipitation 0.00 in - - ()
Sea Level Pressure  
Sea Level Pressure 30.13 in    
Wind  
Wind Speed 2 mph (SSE)    
Max Wind Speed 12 mph    
Max Gust Speed 17 mph    
Visibility 5 miles    
Events Fog    
Averages and records for this station are not official NWS values.
T = Trace of Precipitation, MM = Missing Value Source: NWS Daily Summary

Daily Weather History Graph

Daily Weather History Graph

Search for Another Location

Airport or City:

Trip Planner

Search our weather history database for the weather conditions in past years. The results will help you decide how hot, cold, wet, or windy it might be!

Date:

Astronomy

Oct. 10, 2013 Rise Set
Actual Time 7:02 AM CDT 6:15 PM CDT
Civil Twilight 6:32 AM CDT 6:44 PM CDT
Nautical Twilight 5:58 AM CDT 7:19 PM CDT
Astronomical Twilight 5:23 AM CDT 7:53 PM CDT
Moon 1:06 PM CDT (10/10) 10:41 PM CDT (10/10)
Length of Visible Light 12h 12m
Length of Day
11h 12m
Waxing Crescent, 36% of the Moon is Illuminated
Oct 10
Waxing Crescent
Oct 11
First Quarter
Oct 18
Full
Oct 26
Last Quarter
Nov 3
New

Hourly Weather History & Observations

Time (CDT) Temp. Windchill Dew Point Humidity Pressure Visibility Wind Dir Wind Speed Gust Speed Precip Events Conditions
12:54 AM 50.0 °F - 45.0 °F 83% 30.15 in 10.0 mi SE 3.5 mph - N/A   Clear
1:54 AM 46.9 °F - 44.1 °F 90% 30.16 in 10.0 mi Calm Calm - N/A   Clear
2:54 AM 44.1 °F - 41.0 °F 89% 30.16 in 6.0 mi Calm Calm - N/A   Clear
3:54 AM 42.1 °F - 39.9 °F 92% 30.16 in 4.0 mi Calm Calm - N/A   Clear
4:16 AM 41.0 °F - 39.2 °F 93% 30.15 in 2.5 mi Calm Calm - N/A   Clear
4:24 AM 41.0 °F - 39.2 °F 93% 30.15 in 3.0 mi Calm Calm - N/A   Clear
4:35 AM 41.0 °F - 39.2 °F 93% 30.15 in 1.8 mi Calm Calm - N/A   Clear
4:47 AM 41.0 °F - 39.2 °F 93% 30.15 in 0.5 mi Calm Calm - N/A Fog Fog
4:54 AM 39.9 °F - 37.0 °F 89% 30.17 in 0.5 mi Calm Calm - N/A Fog Fog
5:24 AM 39.2 °F - 37.4 °F 93% 30.15 in 0.2 mi Calm Calm - N/A Fog Fog
5:37 AM 37.4 °F - 37.4 °F 100% 30.15 in 0.2 mi Calm Calm - N/A Fog Fog
5:54 AM 37.9 °F - 37.0 °F 97% 30.17 in 0.2 mi Calm Calm - N/A Fog Fog
6:08 AM 39.2 °F - 37.4 °F 93% 30.15 in 0.8 mi Calm Calm - N/A   Mist
6:16 AM 37.4 °F - 35.6 °F 93% 30.15 in 0.5 mi Calm Calm - N/A Fog Fog
6:54 AM 37.0 °F - 36.0 °F 96% 30.18 in 0.8 mi Calm Calm - N/A   Mist
7:02 AM 37.4 °F - 35.6 °F 93% 30.16 in 1.5 mi Calm Calm - N/A   Scattered Clouds
7:05 AM 37.4 °F - 37.4 °F 100% 30.16 in 3.0 mi Calm Calm - N/A   Scattered Clouds
7:37 AM 37.4 °F - 35.6 °F 93% 30.16 in 1.8 mi Calm Calm - N/A   Partly Cloudy
7:41 AM 39.2 °F - 37.4 °F 93% 30.16 in 4.0 mi Calm Calm - N/A   Scattered Clouds
7:46 AM 39.2 °F - 37.4 °F 93% 30.16 in 2.5 mi Calm Calm - N/A   Mostly Cloudy
7:54 AM 39.9 °F - 39.0 °F 97% 30.18 in 2.0 mi Calm Calm - N/A   Mostly Cloudy
8:02 AM 41.0 °F - 39.2 °F 93% 30.16 in 5.0 mi Calm Calm - N/A   Mostly Cloudy
8:13 AM 42.8 °F - 41.0 °F 93% 30.15 in 10.0 mi Calm Calm - N/A   Scattered Clouds
8:54 AM 46.9 °F - 44.1 °F 90% 30.18 in 10.0 mi Calm Calm - N/A   Clear
9:54 AM 55.9 °F - 46.9 °F 72% 30.17 in 10.0 mi SE 3.5 mph - N/A   Clear
10:54 AM 62.1 °F - 46.9 °F 58% 30.16 in 10.0 mi SE 4.6 mph - N/A   Clear
11:54 AM 68.0 °F - 48.0 °F 49% 30.14 in 10.0 mi SE 4.6 mph - N/A   Clear
12:54 PM 70.0 °F - 45.0 °F 41% 30.12 in 10.0 mi SSE 11.5 mph - N/A   Clear
1:54 PM 71.1 °F - 43.0 °F 36% 30.10 in 10.0 mi SSE 10.4 mph - N/A   Clear
2:54 PM 71.1 °F - 41.0 °F 34% 30.10 in 10.0 mi SSE 9.2 mph 17.3 mph N/A   Clear
3:54 PM 69.1 °F - 43.0 °F 39% 30.09 in 10.0 mi SSE 9.2 mph - N/A   Clear
4:54 PM 68.0 °F - 45.0 °F 43% 30.10 in 10.0 mi South 10.4 mph - N/A   Clear
5:54 PM 63.0 °F - 42.1 °F 46% 30.10 in 10.0 mi SSE 5.8 mph - N/A   Clear
6:54 PM 59.0 °F - 44.1 °F 58% 30.10 in 10.0 mi SE 4.6 mph - N/A   Clear
7:54 PM 55.9 °F - 46.9 °F 72% 30.11 in 10.0 mi SSE 3.5 mph - N/A   Clear
8:54 PM 54.0 °F - 48.0 °F 80% 30.11 in 10.0 mi SE 3.5 mph - N/A   Clear
9:54 PM 52.0 °F - 46.9 °F 83% 30.11 in 10.0 mi SSE 3.5 mph - N/A   Clear
10:54 PM 48.9 °F - 46.0 °F 90% 30.10 in 5.0 mi Calm Calm - N/A   Clear
11:08 PM 46.4 °F - 44.6 °F 93% 30.09 in 1.8 mi Calm Calm - N/A   Clear
11:17 PM 46.4 °F - 44.6 °F 93% 30.09 in 0.5 mi Calm Calm - N/A Fog Fog
11:24 PM 46.4 °F - 44.6 °F 93% 30.08 in 2.5 mi Calm Calm - N/A   Clear
11:26 PM 44.6 °F - 42.8 °F 93% 30.09 in 0.8 mi Calm Calm - N/A   Mist
11:43 PM 44.6 °F - 44.6 °F 100% 30.08 in 2.0 mi Calm Calm - N/A   Partly Cloudy
11:50 PM 44.6 °F - 44.6 °F 100% 30.09 in 4.0 mi Calm Calm - N/A   Partly Cloudy
11:54 PM 45.0 °F 43.5 °F 44.1 °F 97% 30.10 in 4.0 mi South 3.5 mph - N/A   Partly Cloudy